[[{"header":{"parameterUnit":"m.s-1","parameterCategory":1,"la1":30.2991,"la2":30.254,"lo1":-89.0895,"lo2":-89.0444,"dy":0.0017,"dx":0.0017,"nx":28,"ny":28,"refTime":"2023-09-22T09:00:00:Z","depth":0,"parameterNumber":2,"parameterNumberName":"U-component_of_WINDS"},"data":[0,0,0,0,0,0,0,0,0,0,0,0,0,0,0,0,0,0,0,0,0,0,0,0,0,0,0,0,0,0,0,0,0,0,0,0,0,0,0,0,0,0,0,0,0,0,0,0,0,0,0,0,0,0,0,0,0,0,-2.721,-2.7209,0,-2.7147,-2.7147,-2.7146,-2.699,-2.6987,-2.6984,-2.6981,-2.6921,-2.6923,-2.6924,0,0,0,0,0,0,0,0,0,0,0,0,0,-2.72,-2.7201,-2.721,-2.7209,-2.7208,-2.7148,-2.7147,-2.7146,-2.6991,-2.6987,-2.6983,-2.6979,-2.6921,-2.6922,-2.6924,0,0,0,0,0,0,0,0,0,0,0,0,0,-2.7178,-2.7201,-2.721,-2.7123,-2.7115,-2.7148,-2.7147,-2.7146,-2.6992,-2.6987,-2.6982,-2.6977,-2.692,-2.6922,-2.6925,-2.7037,0,0,-2.6931,-2.6932,0,0,0,0,0,0,0,0,-2.7179,-2.7178,-2.7137,-2.7129,-2.712,-2.7071,-2.7121,-2.7109,-2.6993,-2.7039,-2.698,-2.6975,-2.6976,-2.6973,-2.6972,-2.7035,-2.7032,-2.6932,-2.6933,-2.6934,-2.6935,0,0,0,0,0,0,0,-2.7181,-2.718,-2.7185,-2.7137,-2.7126,-2.709,-2.7081,-2.7118,-2.7036,-2.7034,-2.7023,-2.7017,-2.697,-2.697,-2.697,-2.7031,-2.6931,-2.6933,-2.6935,-2.6936,-2.7185,-2.719,0,0,0,0,0,0,-2.7194,-2.7183,-2.7187,-2.7183,-2.7138,-2.7094,-2.7084,-2.7092,-2.7035,-2.7021,-2.7022,-2.701,-2.6969,-2.6967,-2.6967,-2.7095,-2.6934,-2.6936,-2.6937,-2.7179,-2.7186,-2.7191,0,0,0,0,0,0,-2.7195,-2.7196,-2.719,-2.718,-2.7176,-2.7099,-2.711,-2.7094,-2.7093,-2.7025,-2.701,-2.7037,-2.6965,-2.6964,-2.7021,-2.7091,-2.6937,-2.6939,-2.7173,-2.7181,-2.7189,-2.7354,0,0,0,0,0,0,-2.7195,-2.7197,-2.7238,-2.7182,-2.7177,-2.7243,-2.7114,-2.7096,-2.7097,-2.7082,-2.7035,-2.7023,-2.6961,-2.7018,-2.7023,-2.7091,-2.6941,-2.7166,-2.7177,-2.7186,-2.7341,-2.7366,-2.7387,0,0,0,0,0,-2.7195,-2.7287,-2.7241,-2.7242,-2.7226,-2.7248,-2.7245,-2.7171,-2.7104,-2.7145,-2.7101,-2.7025,-2.7083,-2.7026,-2.703,-2.71,-2.7162,-2.7174,-2.7185,-2.7331,-2.7361,-2.7387,0,0,0,0,0,0,-2.7355,-2.7278,-2.7226,-2.7302,-2.7283,-2.7221,-2.727,-2.7205,-2.7205,-2.719,-2.7099,-2.709,-2.7161,-2.7136,-2.7073,-2.7207,-2.711,-2.7123,-2.722,-2.7248,-2.727,-2.7274,-2.6943,0,0,0,0,0,-2.7399,-2.7421,-2.7354,-2.7428,-2.7421,-2.7348,-2.7355,-2.7299,-2.7276,-2.7267,-2.7227,-2.7209,-2.7223,-2.7234,-2.7243,-2.7338,-2.7326,-2.7388,-2.7411,-2.743,-2.7443,-2.7492,-2.7519,-2.723,-2.723,-2.723,0,0,-2.749,-2.7451,-2.7471,-2.7459,-2.7437,-2.7464,-2.7342,-2.7375,-2.7395,-2.7272,-2.7323,-2.7294,-2.7268,-2.7345,-2.7376,-2.7326,-2.752,-2.7445,-2.7461,-2.7463,-2.7507,-2.7534,-2.7559,-2.7238,-2.7237,-2.7236,0,0,-2.7669,-2.7642,-2.77,-2.7681,-2.765,-2.7601,-2.7616,-2.7565,-2.7541,-2.7591,-2.75,-2.7523,-2.7549,-2.7534,-2.753,-2.7707,-2.7637,-2.7713,-2.7832,-2.7881,-2.7904,-2.7924,-2.7987,-2.8011,-2.7726,-2.7726,-2.7726,0,-2.7786,-2.7821,-2.7739,-2.7779,-2.7777,-2.7667,-2.7727,-2.7713,-2.7687,-2.769,-2.7634,-2.7665,-2.764,-2.7712,-2.7755,-2.7756,-2.777,-2.7717,-2.7907,-2.7926,-2.7943,-2.8003,-2.8027,-2.7736,-2.7734,-2.7733,-2.7733,0,-2.7967,-2.7993,-2.8045,-2.8022,-2.8026,-2.8076,-2.8004,-2.8018,-2.7964,-2.7922,-2.7975,-2.7941,-2.7942,-2.7956,-2.7903,-2.8021,-2.7991,-2.7923,-2.7824,-2.7981,-2.8036,-2.8058,-2.7749,-2.7746,-2.7743,-2.774,0,0,-2.8242,-2.8174,-2.8195,-2.8183,-2.8142,-2.8161,-2.8208,-2.8207,-2.8222,-2.8209,-2.8246,-2.8272,-2.8209,-2.8205,-2.815,-2.8193,-2.8336,-2.8119,-2.8117,-2.8161,-2.8466,-2.8517,-2.8544,-2.8291,-2.8295,-2.8298,-2.8468,0,-2.841,-2.8483,-2.8412,-2.85,-2.8524,-2.8421,-2.8462,-2.8442,-2.8405,-2.8422,-2.8381,-2.8401,-2.8316,-2.8313,-2.8352,-2.8311,-2.8396,-2.8298,-2.8325,-2.8327,-2.8334,-2.8572,-2.8626,-2.8788,-2.8489,-2.8492,-2.8495,0,-2.8615,-2.8611,-2.8701,-2.8655,-2.8662,-2.87,-2.8695,-2.8711,-2.8688,-2.8658,-2.8655,-2.8588,-2.8632,-2.8537,-2.8598,-2.8532,-2.854,-2.8522,-2.8526,-2.8525,-2.842,-2.8577,-2.8838,-2.8862,-2.8527,-2.8525,-2.8522,0,-2.8807,-2.8824,-2.8879,-2.8873,-2.8821,-2.885,-2.883,-2.8802,-2.8807,-2.8804,-2.8806,-2.8809,-2.8811,-2.8816,-2.8752,-2.8689,-2.8821,-2.872,-2.8799,-2.8801,-2.883,-2.8829,-2.9095,-2.8837,-2.8837,-2.8836,-2.8836,0,-2.9001,-2.906,-2.8965,-2.8999,-2.9063,-2.8983,-2.9049,-2.9019,-2.8995,-2.9023,-2.8936,-2.8965,-2.888,-2.8901,-2.8852,-2.891,-2.8911,-2.8889,-2.8876,-2.8897,-2.8899,-2.8899,-2.8886,-2.8842,-2.8841,-2.884,-2.8839,0,-2.9225,-2.9163,-2.9217,-2.9164,-2.9153,-2.9202,-2.9157,-2.9188,-2.9147,-2.9184,-2.9188,-2.9123,-2.9143,-2.9081,-2.9091,-2.9058,-2.9143,-2.9111,-2.915,-2.914,-2.9222,-2.9215,-2.9496,-2.9529,-2.9252,-2.9255,-2.9257,0,-2.9352,-2.9395,-2.9347,-2.9359,-2.9343,-2.9364,-2.9369,-2.9293,-2.9302,-2.928,-2.9314,-2.9327,-2.9332,-2.9369,-2.9324,-2.9332,-2.93,-2.9398,-2.93,-2.932,-2.9301,-2.9299,-2.9303,-2.9418,-2.9421,-2.9424,-2.9426,0,-2.9584,-2.9552,-2.9562,-2.9562,-2.957,-2.9567,-2.9557,-2.9573,-2.9492,-2.9507,-2.9525,-2.953,-2.9541,-2.9555,-2.9554,-2.9535,-2.9468,-2.9458,-2.9476,-2.9497,-2.9518,-2.9508,-2.9205,-2.9451,-2.9449,-2.9447,-2.9445,-2.9444,-2.9763,-2.9797,-2.9769,-2.9783,-2.9768,-2.9762,-2.9788,-2.9751,-2.9764,-2.9766,-2.9721,-2.975,-2.9728,-2.9719,-2.9707,-2.973,-2.9685,-2.9711,-2.9718,-2.9726,-2.9739,-2.9516,-2.973,-2.9729,-2.9728,-2.9727,-2.9727,0,-2.9991,-2.9968,-2.9982,-2.9972,-2.9984,-2.9919,-2.9907,-2.9921,-2.9947,-2.9932,-2.9939,-2.9962,-2.9976,-2.9933,-2.9941,-2.9968,-2.9938,-2.9972,-2.9969,-2.9966,-2.9779,-2.9762,-2.9997,-2.9997,-2.9997,-2.9997,-2.9997,-2.9997,-3.011,-3.0164,-3.013,-3.0177,-3.0154,-3.018,-3.0178,-3.0173,-3.016,-3.0189,-3.02,-3.0172,-3.0146,-3.0152,-3.0163,-3.015,-3.0157,-3.0203,-3.018,-3.0006,-2.9979,-2.9954,-2.9937,-3.0205,-3.0205,-3.0364,-3.0366,-3.0367]},{"header":{"parameterUnit":"m.s-1","parameterCategory":1,"la1":30.2991,"la2":30.254,"lo1":-89.0895,"lo2":-89.0444,"dy":0.0017,"dx":0.0017,"nx":28,"ny":28,"refTime":"2023-09-22T09:00:00:Z","depth":0,"parameterNumber":3,"parameterNumberName":"V-component_of_WINDS"},"data":[0,0,0,0,0,0,0,0,0,0,0,0,0,0,0,0,0,0,0,0,0,0,0,0,0,0,0,0,0,0,0,0,0,0,0,0,0,0,0,0,0,0,0,0,0,0,0,0,0,0,0,0,0,0,0,0,0,0,-1.8576,-1.8576,0,-1.8568,-1.8568,-1.8568,-1.8552,-1.8552,-1.8552,-1.8551,-1.8543,-1.8543,-1.8543,0,0,0,0,0,0,0,0,0,0,0,0,0,-1.8575,-1.8575,-1.8576,-1.8576,-1.8576,-1.8568,-1.8568,-1.8568,-1.8552,-1.8552,-1.8551,-1.8551,-1.8543,-1.8543,-1.8543,0,0,0,0,0,0,0,0,0,0,0,0,0,-1.8572,-1.8575,-1.8576,-1.8567,-1.8566,-1.8568,-1.8568,-1.8568,-1.8552,-1.8552,-1.8551,-1.8551,-1.8543,-1.8543,-1.8543,-1.8553,0,0,-1.8543,-1.8543,0,0,0,0,0,0,0,0,-1.8572,-1.8572,-1.8568,-1.8568,-1.8567,-1.8561,-1.8565,-1.8563,-1.8552,-1.8558,-1.8551,-1.8551,-1.8549,-1.8549,-1.8548,-1.8552,-1.8552,-1.8543,-1.8543,-1.8543,-1.8543,0,0,0,0,0,0,0,-1.8572,-1.8572,-1.8573,-1.8568,-1.8567,-1.8563,-1.8562,-1.8564,-1.8556,-1.8557,-1.8556,-1.8555,-1.8548,-1.8548,-1.8548,-1.8552,-1.8543,-1.8543,-1.8543,-1.8543,-1.8562,-1.8562,0,0,0,0,0,0,-1.8574,-1.8573,-1.8573,-1.8573,-1.8568,-1.8563,-1.8562,-1.8563,-1.8556,-1.8554,-1.8556,-1.8555,-1.8548,-1.8548,-1.8547,-1.8557,-1.8543,-1.8543,-1.8543,-1.8561,-1.8562,-1.8562,0,0,0,0,0,0,-1.8574,-1.8574,-1.8573,-1.8572,-1.8572,-1.8564,-1.8565,-1.8563,-1.8563,-1.8555,-1.8553,-1.8557,-1.8548,-1.8547,-1.8551,-1.8557,-1.8543,-1.8543,-1.8561,-1.8562,-1.8562,-1.8578,0,0,0,0,0,0,-1.8574,-1.8575,-1.8579,-1.8572,-1.8572,-1.8578,-1.8565,-1.8563,-1.8563,-1.8562,-1.8556,-1.8554,-1.8547,-1.8551,-1.8551,-1.8557,-1.8543,-1.856,-1.8561,-1.8562,-1.8577,-1.858,-1.8581,0,0,0,0,0,-1.8574,-1.8584,-1.8579,-1.8579,-1.8577,-1.8578,-1.8578,-1.857,-1.8564,-1.8567,-1.8562,-1.8554,-1.8556,-1.8552,-1.8552,-1.8557,-1.856,-1.8561,-1.8562,-1.8576,-1.8579,-1.8581,0,0,0,0,0,0,-1.8591,-1.8583,-1.8578,-1.8586,-1.8583,-1.8576,-1.858,-1.8573,-1.8572,-1.8571,-1.8561,-1.856,-1.8565,-1.8561,-1.8556,-1.8566,-1.8557,-1.8558,-1.8568,-1.857,-1.8572,-1.8573,-1.8544,0,0,0,0,0,-1.8596,-1.8598,-1.859,-1.8598,-1.8597,-1.8589,-1.8589,-1.8583,-1.858,-1.8578,-1.8573,-1.857,-1.857,-1.857,-1.8569,-1.8577,-1.8574,-1.858,-1.8582,-1.8584,-1.8585,-1.8587,-1.859,-1.8566,-1.8566,-1.8566,0,0,-1.8606,-1.8601,-1.8603,-1.8601,-1.8599,-1.86,-1.8588,-1.8591,-1.8591,-1.8579,-1.8582,-1.8578,-1.8573,-1.8579,-1.8581,-1.8576,-1.8591,-1.8585,-1.8587,-1.8587,-1.8589,-1.8591,-1.8593,-1.8566,-1.8566,-1.8566,0,0,-1.8624,-1.8622,-1.8627,-1.8624,-1.862,-1.8614,-1.8615,-1.8609,-1.8606,-1.8609,-1.8599,-1.8599,-1.8599,-1.8596,-1.8594,-1.8609,-1.8602,-1.8609,-1.862,-1.8622,-1.8624,-1.8626,-1.863,-1.8632,-1.861,-1.861,-1.861,0,-1.8637,-1.864,-1.8631,-1.8634,-1.8632,-1.8621,-1.8625,-1.8623,-1.8618,-1.8617,-1.8612,-1.8611,-1.8607,-1.8611,-1.8614,-1.8614,-1.8614,-1.861,-1.8625,-1.8626,-1.8628,-1.8632,-1.8634,-1.8611,-1.8611,-1.8611,-1.8611,0,-1.8655,-1.8656,-1.8661,-1.8657,-1.8656,-1.866,-1.8651,-1.8651,-1.8645,-1.8639,-1.8641,-1.8636,-1.8634,-1.8634,-1.8628,-1.8636,-1.8634,-1.8627,-1.8618,-1.8631,-1.8635,-1.8636,-1.8613,-1.8612,-1.8612,-1.8612,0,0,-1.8685,-1.8674,-1.8676,-1.8674,-1.8667,-1.8668,-1.867,-1.8668,-1.8668,-1.8664,-1.8666,-1.8665,-1.8658,-1.8656,-1.865,-1.8652,-1.8663,-1.8644,-1.8644,-1.8647,-1.867,-1.8675,-1.8677,-1.8657,-1.8658,-1.8658,-1.867,0,-1.8702,-1.8706,-1.8697,-1.8703,-1.8704,-1.8692,-1.8694,-1.8689,-1.8684,-1.8683,-1.8677,-1.8676,-1.8668,-1.8666,-1.8668,-1.8661,-1.8667,-1.866,-1.8658,-1.8658,-1.8659,-1.8679,-1.8685,-1.8697,-1.8672,-1.8672,-1.8672,0,-1.8722,-1.8719,-1.8725,-1.8717,-1.8717,-1.8719,-1.8715,-1.8715,-1.8709,-1.8704,-1.8702,-1.8693,-1.8694,-1.8685,-1.8686,-1.8681,-1.8679,-1.8676,-1.8676,-1.8675,-1.8666,-1.8679,-1.8701,-1.8702,-1.8674,-1.8674,-1.8674,0,-1.8742,-1.874,-1.8743,-1.8741,-1.8732,-1.8733,-1.8729,-1.8723,-1.8721,-1.8718,-1.8716,-1.8713,-1.8711,-1.8708,-1.8698,-1.8693,-1.8699,-1.869,-1.8695,-1.8695,-1.8697,-1.8697,-1.8719,-1.8697,-1.8697,-1.8697,-1.8697,0,-1.8762,-1.8766,-1.8752,-1.8754,-1.8758,-1.8747,-1.8751,-1.8745,-1.8739,-1.8739,-1.8728,-1.8728,-1.8716,-1.8714,-1.8707,-1.8708,-1.8707,-1.8703,-1.8701,-1.8704,-1.8704,-1.8703,-1.8702,-1.8697,-1.8697,-1.8697,-1.8697,0,-1.8786,-1.8777,-1.8779,-1.8769,-1.8767,-1.877,-1.8761,-1.8762,-1.8755,-1.8755,-1.8754,-1.8743,-1.8741,-1.8731,-1.8726,-1.8721,-1.8724,-1.872,-1.8726,-1.8724,-1.873,-1.8729,-1.8751,-1.8753,-1.873,-1.873,-1.873,0,-1.8799,-1.8801,-1.8792,-1.8791,-1.8787,-1.8786,-1.8784,-1.8773,-1.8771,-1.8764,-1.8765,-1.8761,-1.8758,-1.8754,-1.8745,-1.8741,-1.8737,-1.8744,-1.8736,-1.8738,-1.8736,-1.8736,-1.8736,-1.8746,-1.8747,-1.8747,-1.8747,0,-1.8823,-1.8817,-1.8815,-1.8811,-1.8809,-1.8805,-1.8801,-1.88,-1.8788,-1.8786,-1.8783,-1.878,-1.8775,-1.8771,-1.8765,-1.876,-1.8751,-1.875,-1.8751,-1.8754,-1.8757,-1.8754,-1.873,-1.875,-1.8749,-1.8749,-1.8749,-1.8749,-1.8841,-1.8842,-1.8835,-1.8832,-1.8828,-1.8823,-1.8823,-1.8816,-1.8813,-1.8808,-1.8801,-1.8798,-1.8791,-1.8782,-1.8777,-1.8774,-1.877,-1.8771,-1.8772,-1.8772,-1.8773,-1.8757,-1.8773,-1.8773,-1.8773,-1.8773,-1.8773,0,-1.8864,-1.8858,-1.8856,-1.8849,-1.8847,-1.8839,-1.8833,-1.8831,-1.8829,-1.8823,-1.8819,-1.8815,-1.8811,-1.8801,-1.8796,-1.8795,-1.8791,-1.8794,-1.8794,-1.8793,-1.8778,-1.8778,-1.8797,-1.8797,-1.8797,-1.8797,-1.8797,-1.8797,-1.8875,-1.8876,-1.887,-1.8868,-1.8863,-1.886,-1.8857,-1.8853,-1.8847,-1.8843,-1.8839,-1.8833,-1.8825,-1.8819,-1.8814,-1.8811,-1.8809,-1.8814,-1.881,-1.8796,-1.8794,-1.8792,-1.8791,-1.8814,-1.8814,-1.8824,-1.8825,-1.8825]}]]